Preview of NWS' New Version of Forecast
This preview is not operational and should not be used for support decisions.

Regional Weather Roundup (RWR)

Issued by National Weather Service (NWS)

                            
000
ASCA42 TJSJ 221610
RWRPR 
PUERTO RICO/U.S. VIRGIN ISLANDS HOURLY WEATHER ROUNDUP
NATIONAL WEATHER SERVICE SAN JUAN PR
1200 PM AST WED MAY 22 2019

PRZ001>002-007>008-010-221700-
PUERTO RICO
  
CITY           SKY/WX    TMP DP  RH WIND       PRES   REMARKS
SAN JUAN LMM   PTSUNNY   84  73  70 E15G23    29.99S HX  91           
AGUADILLA      MOSUNNY   84  73  70 E6        30.02S HX  91           
CEIBA          SUNNY     88  73  62 E12       30.02S HX  96           
$$

VIZ001>002-221700-
U.S. VIRGIN ISLANDS
  
CITY           SKY/WX    TMP DP  RH WIND       PRES   REMARKS
CHARLOTTE AMA  SUNNY     84  73  70 SE13      30.00S HX  91           
CHRISTIANSTED  MOSUNNY   86  73  66 E14       30.01S HX  93           
$$

HOURLY WEATHER ROUNDUP FOR THE NEWS MEDIA
  
CITY           SKY/WX    TMP DP  RH WIND       PRES   REMARKS
ORLANDO        FAIR      86  65  49 SE5       30.10S                  
NEW YORK       FAIR      69  39  33 N14       30.24S                  
NEWARK         FAIR      71  36  27 NW8       30.24S                  
CHICAGO        PTSUNNY   69  58  67 S18G26    29.84S                  
HARTFORD       FAIR      62  36  37 NE5       30.17R                  
BOSTON         PTSUNNY   67  35  30 N12G21    30.18R                  
DALLAS         CLOUDY    82  73  74 SE15G22   29.77S HAZE             
PHILADELPHIA   PTSUNNY   70  37  29 SE7       30.26F                  
LOS ANGELES    MOSUNNY   62  45  53 W6        29.73S                  
WASHINGTON DC  PTSUNNY   66  39  37 VRB3      30.29S